Torna al catalogo

BLACKJACK ACES-1

AttivoMilitareSSO
NORAD 56956·PAYLOAD·🇺🇸 United States

Lanciato Jun 12, 2023 da Vandenberg Space Force Base

Loading…

Prossimi Passaggi (prossime 24 ore)

TLE

AggiornatoSource: Space-Track

Epoca: Sep 13, 2026, 21:52 UTC

1 56956U 23084AA  26256.91146833  .00005134  00000-0  25035-3 0  9995
2 56956  97.6327  32.7193 0001350 105.9241 254.2142 15.18774506130360

Traccia BLACKJACK ACES-1 in tempo reale con AllMySat

Download on the App Store